Tracking 20232 objects as of 21-Jan-2020
HD Live streaming from Space Station
objects crossing your sky now

DIAMANT B-P4 DEB

Track DIAMANT B-P4 DEB now!
10-day predictions


NORAD ID: 7659
Int'l Code: 1975-010E
Perigee: 790.3 km
Apogee: 1,065.3 km
Inclination: 49.8 °
Period: 103.4 minutes
Semi major axis: 7298 km
RCS: 0.1434 m2 (medium)
Launch date: February 6, 1975
Source: France (FR)
Launch site: FRENCH GUIANA (FRGUI)

Note: This is SATELLITE DEBRIS
aabbcc
Your satellite tracking list
Your tracking list is empty




NASA's NSSDC Master Catalog

Two Line Element Set (TLE):
1  7659U 75010E   20021.46704160 -.00000131  00000-0  11985-4 0  9997
2  7659  49.8159 124.5782 0188381  25.3502 335.6495 13.92283595279550
Source of the keplerian elements: AFSPC